Location: Warszawa
(52.2500°N, 21.0000°E)
Time: 14:14:02
(UTC+01:00)

Envisat - Visible Passes

Search period start: 04 December 2023 00:00
Search period end: 14 December 2023 00:00
Orbit: 762 x 764 km, 98.3° (Epoch: 03 December)

Date Brightness Start Highest point End Pass type
(mag) Time Alt. Az. Time Alt. Az. Time Alt. Az.
04 Dec 5.7 03:14:40 10° NNE 03:14:43 10° NNE 03:14:43 10° NNE visible
04 Dec 5.2 04:54:24 10° N 04:54:52 12° N 04:54:52 12° N visible
05 Dec 5.3 04:16:39 10° N 04:17:06 12° N 04:17:06 12° N visible
06 Dec 5.6 03:39:11 10° NNE 03:39:20 11° NNE 03:39:20 11° NNE visible
07 Dec 5.3 04:41:27 10° N 04:41:42 11° N 04:41:42 11° N visible
07 Dec 6.1 16:06:06 10° W 16:07:04 10° W 16:08:01 10° WNW visible
08 Dec 5.5 04:03:48 10° N 04:03:57 11° N 04:03:57 11° N visible
10 Dec 5.4 04:28:31 10° N 04:28:35 10° N 04:28:35 10° N visible
